| time (UTC) | temp F | wind direction | speed MPH | gust MPH | rain 1hr in | rain 24hr in | rain mn in | humidity % | barometer mb |
| 20260504060235 | 54 | 345 | 4.0 | 6.0 | 0.00 | 0.00 | 0.00 | 56 | 1102.8 |
| 20260504050703 | 53 | 229 | 3.0 | 5.0 | 0.00 | 0.00 | 0.00 | 60 | 1103.0 |
| 20260504050200 | 53 | 182 | 3.0 | 5.0 | 0.00 | 0.00 | 0.00 | 59 | 1103.2 |
| 20260504045658 | 53 | 216 | 3.0 | 3.0 | 0.00 | 0.00 | 0.00 | 61 | 1103.2 |
| 20260504045157 | 53 | 216 | 3.0 | 3.0 | 0.00 | 0.00 | 0.00 | 62 | 1103.2 |
| 20260504044655 | 52 | 190 | 3.0 | 3.0 | 0.00 | 0.00 | 0.00 | 63 | 1103.2 |
| 20260504044152 | 52 | 160 | 3.0 | 3.0 | 0.00 | 0.00 | 0.00 | 63 | 1103.1 |
| 20260504043649 | 52 | 175 | 0.0 | 1.0 | 0.00 | 0.00 | 0.00 | 63 | 1103.2 |
| 20260504043146 | 52 | 149 | 2.0 | 3.0 | 0.00 | 0.00 | 0.00 | 62 | 1102.8 |
| 20260504042644 | 52 | 147 | 2.0 | 6.0 | 0.00 | 0.00 | 0.00 | 63 | 1103.0 |
| 20260504042140 | 51 | 141 | 3.0 | 5.0 | 0.00 | 0.00 | 0.00 | 62 | 1103.0 |
| 20260504041636 | 52 | 146 | 2.0 | 5.0 | 0.00 | 0.00 | 0.00 | 62 | 1103.1 |
| 20260504041132 | 52 | 146 | 1.0 | 3.0 | 0.00 | 0.00 | 0.00 | 61 | 1102.8 |
| 20260504040630 | 52 | 154 | 1.0 | 5.0 | 0.00 | 0.00 | 0.00 | 60 | 1102.7 |
| 20260504040127 | 53 | 146 | 3.0 | 6.0 | 0.00 | 0.00 | 0.00 | 59 | 1102.7 |
| 20260504035623 | 53 | 134 | 2.0 | 5.0 | 0.00 | 0.00 | 0.00 | 58 | 1102.8 |
| 20260504035120 | 52 | 134 | 2.0 | 3.0 | 0.00 | 0.00 | 0.00 | 59 | 1102.6 |
| 20260504034618 | 52 | 145 | 1.0 | 2.0 | 0.00 | 0.00 | 0.00 | 60 | 1102.7 |
| 20260504034114 | 52 | 57 | 3.0 | 3.0 | 0.00 | 0.00 | 0.00 | 61 | 1102.6 |
| 20260504033612 | 53 | 53 | 1.0 | 2.0 | 0.00 | 0.00 | 0.00 | 58 | 1102.5 |
| 20260504033109 | 53 | 140 | 2.0 | 2.0 | 0.00 | 0.00 | 0.00 | 56 | 1102.5 |
| 20260504032606 | 53 | 57 | 2.0 | 3.0 | 0.00 | 0.00 | 0.00 | 58 | 1102.6 |
| 20260504032103 | 53 | 56 | 3.0 | 3.0 | 0.00 | 0.00 | 0.00 | 59 | 1102.6 |
| 20260504031600 | 52 | 72 | 3.0 | 5.0 | 0.00 | 0.00 | 0.00 | 60 | 1102.6 |
| 20260504031056 | 52 | 65 | 4.0 | 5.0 | 0.00 | 0.00 | 0.00 | 62 | 1102.5 |
| 20260504030553 | 52 | 68 | 3.0 | 5.0 | 0.00 | 0.00 | 0.00 | 60 | 1102.4 |
| 20260504030049 | 53 | 62 | 3.0 | 5.0 | 0.00 | 0.00 | 0.00 | 59 | 1102.8 |
| 20260504025547 | 53 | 63 | 3.0 | 3.0 | 0.00 | 0.00 | 0.00 | 59 | 1102.7 |
| 20260504025044 | 53 | 95 | 0.0 | 1.0 | 0.00 | 0.00 | 0.00 | 58 | 1102.6 |
| 20260504024541 | 53 | 53 | 2.0 | 2.0 | 0.00 | 0.00 | 0.00 | 59 | 1102.8 |
| 20260504024038 | 54 | 46 | 2.0 | 2.0 | 0.00 | 0.00 | 0.00 | 57 | 1102.8 |
| 20260504023534 | 55 | 354 | 0.0 | 1.0 | 0.00 | 0.00 | 0.00 | 53 | 1102.8 |
| 20260504023030 | 55 | 354 | 0.0 | 0.0 | 0.00 | 0.00 | 0.00 | 52 | 1102.5 |
| 20260504022526 | 55 | 354 | 0.0 | 1.0 | 0.00 | 0.00 | 0.00 | 53 | 1102.7 |
| 20260504022023 | 54 | 354 | 0.0 | 0.0 | 0.00 | 0.00 | 0.00 | 54 | 1102.5 |
| 20260504021520 | 55 | 354 | 0.0 | 0.0 | 0.00 | 0.00 | 0.00 | 53 | 1102.7 |
| 20260504021017 | 56 | 354 | 0.0 | 1.0 | 0.00 | 0.00 | 0.00 | 51 | 1102.5 |
| 20260504020514 | 56 | 354 | 0.0 | 0.0 | 0.00 | 0.00 | 0.00 | 51 | 1102.4 |
| 20260504020011 | 56 | 354 | 0.0 | 1.0 | 0.00 | 0.00 | 0.00 | 51 | 1102.4 |
| 20260504015507 | 57 | 354 | 0.0 | 1.0 | 0.00 | 0.00 | 0.00 | 50 | 1102.4 |
| 20260504015003 | 57 | 353 | 1.0 | 1.0 | 0.00 | 0.00 | 0.00 | 49 | 1102.4 |
| 20260504014459 | 57 | 349 | 1.0 | 2.0 | 0.00 | 0.00 | 0.00 | 49 | 1102.5 |
| 20260504013956 | 57 | 347 | 2.0 | 2.0 | 0.00 | 0.00 | 0.00 | 49 | 1102.4 |
| 20260504013455 | 57 | 352 | 2.0 | 2.0 | 0.00 | 0.00 | 0.00 | 49 | 1102.5 |
| 20260504012950 | 57 | 0 | 2.0 | 3.0 | 0.00 | 0.00 | 0.00 | 49 | 1102.3 |
| 20260504012448 | 57 | 356 | 2.0 | 2.0 | 0.00 | 0.00 | 0.00 | 50 | 1102.2 |
| 20260504011946 | 57 | 340 | 2.0 | 3.0 | 0.00 | 0.00 | 0.00 | 50 | 1102.3 |
| 20260504011442 | 56 | 3 | 2.0 | 2.0 | 0.00 | 0.00 | 0.00 | 50 | 1102.2 |
| 20260504010938 | 56 | 4 | 1.0 | 2.0 | 0.00 | 0.00 | 0.00 | 50 | 1102.2 |
| 20260504010434 | 57 | 355 | 2.0 | 2.0 | 0.00 | 0.00 | 0.00 | 49 | 1102.3 |
| 20260504005930 | 57 | 344 | 3.0 | 5.0 | 0.00 | 0.00 | 0.00 | 49 | 1102.2 |
| 20260504005427 | 57 | 341 | 3.0 | 5.0 | 0.00 | 0.00 | 0.00 | 49 | 1102.2 |
| 20260504004925 | 57 | 325 | 3.0 | 5.0 | 0.00 | 0.00 | 0.00 | 49 | 1102.0 |
| 20260504004422 | 57 | 351 | 3.0 | 5.0 | 0.00 | 0.00 | 0.00 | 49 | 1101.9 |
| 20260504003919 | 57 | 352 | 3.0 | 5.0 | 0.00 | 0.00 | 0.00 | 50 | 1101.9 |
| 20260504003415 | 56 | 352 | 4.0 | 6.0 | 0.00 | 0.00 | 0.00 | 50 | 1102.0 |
| 20260504002912 | 57 | 302 | 2.0 | 2.0 | 0.00 | 0.00 | 0.00 | 50 | 1101.8 |
| 20260504002409 | 57 | 232 | 2.0 | 3.0 | 0.00 | 0.00 | 0.00 | 50 | 1101.8 |
| 20260504001907 | 57 | 234 | 2.0 | 2.0 | 0.00 | 0.00 | 0.00 | 48 | 1101.8 |
| 20260504001404 | 58 | 325 | 3.0 | 3.0 | 0.00 | 0.00 | 0.00 | 49 | 1101.8 |
| 20260504000900 | 58 | 240 | 3.0 | 3.0 | 0.00 | 0.00 | 0.00 | 48 | 1101.9 |
| 20260504000357 | 58 | 232 | 3.0 | 3.0 | 0.00 | 0.00 | 0.00 | 48 | 1102.0 |
| 20260503235855 | 58 | 277 | 3.0 | 6.0 | 0.00 | 0.00 | 0.00 | 50 | 1101.9 |
| 20260503235353 | 59 | 263 | 3.0 | 3.0 | 0.00 | 0.00 | 0.00 | 50 | 1101.9 |
| 20260503234850 | 59 | 230 | 3.0 | 3.0 | 0.00 | 0.00 | 0.00 | 49 | 1101.9 |
| 20260503234348 | 59 | 257 | 4.0 | 5.0 | 0.00 | 0.00 | 0.00 | 47 | 1101.9 |
| 20260503233845 | 59 | 323 | 4.0 | 6.0 | 0.00 | 0.00 | 0.00 | 46 | 1102.0 |
| 20260503233341 | 60 | 222 | 5.0 | 6.0 | 0.00 | 0.00 | 0.00 | 45 | 1102.0 |
| 20260503232838 | 60 | 312 | 3.0 | 6.0 | 0.00 | 0.00 | 0.00 | 46 | 1102.1 |
| 20260503232335 | 60 | 308 | 3.0 | 8.0 | 0.00 | 0.00 | 0.00 | 45 | 1101.8 |
| 20260503231833 | 60 | 257 | 3.0 | 5.0 | 0.00 | 0.00 | 0.00 | 47 | 1101.8 |
| 20260503231330 | 60 | 345 | 1.0 | 3.0 | 0.00 | 0.00 | 0.00 | 48 | 1101.8 |
| 20260503230825 | 61 | 238 | 3.0 | 7.0 | 0.00 | 0.00 | 0.00 | 45 | 1101.9 |
| 20260503230323 | 61 | 344 | 3.0 | 5.0 | 0.00 | 0.00 | 0.00 | 45 | 1102.0 |
| 20260503225820 | 60 | 351 | 2.0 | 3.0 | 0.00 | 0.00 | 0.00 | 45 | 1102.0 |
| 20260503225316 | 61 | 23 | 5.0 | 7.0 | 0.00 | 0.00 | 0.00 | 39 | 1102.0 |
| 20260503224813 | 61 | 6 | 5.0 | 7.0 | 0.00 | 0.00 | 0.00 | 41 | 1102.0 |
| 20260503224310 | 60 | 229 | 4.0 | 6.0 | 0.00 | 0.00 | 0.00 | 41 | 1102.0 |
| 20260503223808 | 61 | 249 | 5.0 | 7.0 | 0.00 | 0.00 | 0.00 | 41 | 1101.9 |
| 20260503223305 | 61 | 158 | 5.0 | 8.0 | 0.00 | 0.00 | 0.00 | 43 | 1102.1 |
| 20260503222801 | 61 | 207 | 3.0 | 6.0 | 0.00 | 0.00 | 0.00 | 45 | 1102.1 |
| 20260503222259 | 61 | 321 | 2.0 | 5.0 | 0.00 | 0.00 | 0.00 | 47 | 1102.0 |
| 20260503221757 | 60 | 249 | 3.0 | 7.0 | 0.00 | 0.00 | 0.00 | 46 | 1102.0 |
| 20260503221255 | 62 | 167 | 5.0 | 8.0 | 0.00 | 0.00 | 0.00 | 43 | 1102.1 |
| 20260503220751 | 61 | 209 | 4.0 | 8.0 | 0.00 | 0.00 | 0.00 | 45 | 1102.1 |
| 20260503220248 | 62 | 34 | 9.0 | 14.0 | 0.00 | 0.00 | 0.00 | 42 | 1102.0 |
| 20260503215745 | 61 | 16 | 3.0 | 6.0 | 0.00 | 0.00 | 0.00 | 44 | 1102.0 |
| 20260503215242 | 61 | 163 | 7.0 | 8.0 | 0.00 | 0.00 | 0.00 | 42 | 1102.2 |
| 20260503214740 | 61 | 247 | 4.0 | 6.0 | 0.00 | 0.00 | 0.00 | 44 | 1102.0 |
| 20260503214236 | 61 | 273 | 3.0 | 7.0 | 0.00 | 0.00 | 0.00 | 42 | 1102.1 |
| 20260503213735 | 62 | 189 | 5.0 | 11.0 | 0.00 | 0.00 | 0.00 | 41 | 1102.1 |
| 20260503213232 | 59 | 0 | 3.0 | 6.0 | 0.00 | 0.00 | 0.00 | 42 | 1102.2 |
| 20260503212728 | 62 | 245 | 5.0 | 10.0 | 0.00 | 0.00 | 0.00 | 39 | 1102.2 |
| 20260503212226 | 61 | 118 | 4.0 | 6.0 | 0.00 | 0.00 | 0.00 | 40 | 1102.2 |
| 20260503211723 | 60 | 190 | 3.0 | 13.0 | 0.00 | 0.00 | 0.00 | 40 | 1102.4 |
| 20260503211219 | 62 | 220 | 4.0 | 8.0 | 0.00 | 0.00 | 0.00 | 38 | 1102.3 |
| 20260503210715 | 62 | 310 | 7.0 | 9.0 | 0.00 | 0.00 | 0.00 | 39 | 1102.4 |
| 20260503210213 | 62 | 251 | 5.0 | 6.0 | 0.00 | 0.00 | 0.00 | 41 | 1102.3 |
| 20260503205708 | 61 | 84 | 4.0 | 10.0 | 0.00 | 0.00 | 0.00 | 40 | 1102.4 |
| 20260503205204 | 62 | 347 | 4.0 | 7.0 | 0.00 | 0.00 | 0.00 | 38 | 1102.8 |
| 20260503204701 | 63 | 220 | 3.0 | 9.0 | 0.00 | 0.00 | 0.00 | 39 | 1102.5 |
| 20260503204159 | 61 | 175 | 2.0 | 9.0 | 0.00 | 0.00 | 0.00 | 43 | 1102.5 |
| 20260503203655 | 63 | 167 | 5.0 | 11.0 | 0.00 | 0.00 | 0.00 | 38 | 1102.5 |
| 20260503203153 | 61 | 253 | 4.0 | 7.0 | 0.00 | 0.00 | 0.00 | 43 | 1102.5 |
| 20260503202650 | 60 | 234 | 4.0 | 10.0 | 0.00 | 0.00 | 0.00 | 43 | 1102.6 |
| 20260503202148 | 62 | 7 | 3.0 | 7.0 | 0.00 | 0.00 | 0.00 | 45 | 1102.7 |
| 20260503201646 | 59 | 356 | 3.0 | 6.0 | 0.00 | 0.00 | 0.00 | 48 | 1102.7 |
| 20260503201143 | 61 | 262 | 3.0 | 8.0 | 0.00 | 0.00 | 0.00 | 44 | 1102.8 |
| 20260503200639 | 60 | 288 | 5.0 | 11.0 | 0.00 | 0.00 | 0.00 | 47 | 1103.0 |
| 20260503200135 | 61 | 258 | 6.0 | 9.0 | 0.00 | 0.00 | 0.00 | 44 | 1103.3 |
| 20260503195633 | 63 | 240 | 7.0 | 10.0 | 0.00 | 0.00 | 0.00 | 42 | 1103.2 |
| 20260503195130 | 64 | 268 | 5.0 | 15.0 | 0.00 | 0.00 | 0.00 | 43 | 1103.4 |
| 20260503194627 | 62 | 153 | 6.0 | 11.0 | 0.00 | 0.00 | 0.00 | 43 | 1103.4 |
| 20260503194122 | 63 | 167 | 4.0 | 10.0 | 0.00 | 0.00 | 0.00 | 44 | 1103.5 |
| 20260503193619 | 63 | 224 | 5.0 | 10.0 | 0.00 | 0.00 | 0.00 | 43 | 1103.4 |
| 20260503193114 | 65 | 172 | 5.0 | 11.0 | 0.00 | 0.00 | 0.00 | 41 | 1103.4 |
| 20260503192610 | 61 | 69 | 1.0 | 6.0 | 0.00 | 0.00 | 0.00 | 46 | 1103.4 |
| 20260503192106 | 63 | 192 | 9.0 | 11.0 | 0.00 | 0.00 | 0.00 | 42 | 1103.5 |
| 20260503191603 | 61 | 58 | 4.0 | 8.0 | 0.00 | 0.00 | 0.00 | 44 | 1103.7 |
| 20260503191100 | 61 | 137 | 8.0 | 10.0 | 0.00 | 0.00 | 0.00 | 43 | 1103.7 |
| 20260503190557 | 61 | 189 | 4.0 | 13.0 | 0.00 | 0.00 | 0.00 | 44 | 1103.9 |
| 20260503190054 | 58 | 206 | 5.0 | 8.0 | 0.00 | 0.00 | 0.00 | 46 | 1103.8 |
| 20260503185550 | 62 | 215 | 5.0 | 8.0 | 0.00 | 0.00 | 0.00 | 45 | 1103.7 |
| 20260503185050 | 58 | 155 | 2.0 | 3.0 | 0.00 | 0.00 | 0.00 | 45 | 1103.9 |
| 20260503184546 | 61 | 188 | 5.0 | 14.0 | 0.00 | 0.00 | 0.00 | 43 | 1103.9 |
| 20260503184043 | 61 | 319 | 4.0 | 6.0 | 0.00 | 0.00 | 0.00 | 45 | 1103.8 |
| 20260503183539 | 62 | 153 | 5.0 | 8.0 | 0.00 | 0.00 | 0.00 | 45 | 1103.9 |
| 20260503183037 | 62 | 129 | 5.0 | 10.0 | 0.00 | 0.00 | 0.00 | 43 | 1104.2 |
| 20260503182536 | 61 | 140 | 2.0 | 5.0 | 0.00 | 0.00 | 0.00 | 46 | 1104.1 |
| 20260503182033 | 61 | 146 | 2.0 | 5.0 | 0.00 | 0.00 | 0.00 | 46 | 1103.9 |
| 20260503181529 | 61 | 175 | 3.0 | 7.0 | 0.00 | 0.00 | 0.00 | 45 | 1104.2 |
| 20260503181026 | 59 | 149 | 3.0 | 7.0 | 0.00 | 0.00 | 0.00 | 47 | 1104.2 |
| 20260503180523 | 58 | 265 | 5.0 | 8.0 | 0.00 | 0.00 | 0.00 | 49 | 1104.3 |
| 20260503180020 | 60 | 290 | 2.0 | 5.0 | 0.00 | 0.00 | 0.00 | 48 | 1104.0 |
| 20260503175518 | 62 | 166 | 7.0 | 11.0 | 0.00 | 0.00 | 0.00 | 45 | 1104.2 |
| 20260503175015 | 60 | 159 | 3.0 | 7.0 | 0.00 | 0.00 | 0.00 | 47 | 1104.3 |
| 20260503174512 | 56 | 165 | 3.0 | 6.0 | 0.00 | 0.00 | 0.00 | 53 | 1104.3 |
| 20260503174008 | 59 | 1 | 4.0 | 10.0 | 0.00 | 0.00 | 0.00 | 50 | 1104.2 |
| 20260503173503 | 58 | 169 | 4.0 | 7.0 | 0.00 | 0.00 | 0.00 | 47 | 1104.2 |
| 20260503173000 | 61 | 302 | 4.0 | 7.0 | 0.00 | 0.00 | 0.00 | 46 | 1104.5 |
| 20260503172458 | 59 | 9 | 3.0 | 5.0 | 0.00 | 0.00 | 0.00 | 46 | 1104.6 |
| 20260503171954 | 59 | 149 | 2.0 | 6.0 | 0.00 | 0.00 | 0.00 | 44 | 1104.6 |
| 20260503171451 | 57 | 284 | 4.0 | 6.0 | 0.00 | 0.00 | 0.00 | 44 | 1104.8 |
| 20260503170948 | 58 | 183 | 3.0 | 5.0 | 0.00 | 0.00 | 0.00 | 43 | 1104.7 |
| 20260503170444 | 57 | 154 | 3.0 | 5.0 | 0.00 | 0.00 | 0.00 | 45 | 1104.6 |
| 20260503150837 | 51 | 309 | 2.0 | 6.0 | 0.00 | 0.00 | 0.00 | 51 | 1105.2 |
| 20260503150333 | 51 | 78 | 1.0 | 5.0 | 0.00 | 0.00 | 0.00 | 53 | 1105.2 |
| 20260503140257 | 48 | 0 | 4.0 | 6.0 | 0.00 | 0.00 | 0.00 | 62 | 1104.9 |
| 20260503131227 | 45 | 49 | 0.0 | 6.0 | 0.00 | 0.00 | 0.00 | 71 | 1104.3 |
| 20260503130724 | 45 | 24 | 0.0 | 1.0 | 0.00 | 0.00 | 0.00 | 73 | 1104.7 |
| 20260503130221 | 45 | 356 | 1.0 | 2.0 | 0.00 | 0.00 | 0.00 | 72 | 1104.3 |
| 20260503120147 | 43 | 27 | 2.0 | 3.0 | 0.00 | 0.00 | 0.00 | 80 | 1104.6 |
| 20260503110615 | 43 | 25 | 0.0 | 1.0 | 0.00 | 0.00 | 0.00 | 80 | 1103.9 |
| 20260503110112 | 43 | 25 | 1.0 | 2.0 | 0.00 | 0.00 | 0.00 | 80 | 1103.7 |
| 20260503090502 | 43 | 28 | 0.0 | 0.0 | 0.00 | 0.00 | 0.00 | 79 | 1102.7 |
| 20260503081428 | 45 | 29 | 3.0 | 3.0 | 0.00 | 0.00 | 0.00 | 73 | 1102.2 |
| 20260503080925 | 45 | 23 | 3.0 | 5.0 | 0.00 | 0.00 | 0.00 | 73 | 1102.2 |
| 20260503080422 | 45 | 20 | 2.0 | 5.0 | 0.00 | 0.00 | 0.00 | 73 | 1102.2 |
| 20260503072858 | 46 | 15 | 3.0 | 3.0 | 0.00 | 0.00 | 0.00 | 72 | 1101.8 |
| 20260503072355 | 46 | 18 | 3.0 | 5.0 | 0.00 | 0.00 | 0.00 | 72 | 1101.9 |
| 20260503071851 | 46 | 25 | 3.0 | 5.0 | 0.00 | 0.00 | 0.00 | 72 | 1101.7 |
| 20260503071349 | 46 | 18 | 4.0 | 5.0 | 0.00 | 0.00 | 0.00 | 70 | 1101.8 |
| 20260503070845 | 46 | 18 | 5.0 | 6.0 | 0.00 | 0.00 | 0.00 | 70 | 1101.8 |
| 20260503070343 | 46 | 16 | 4.0 | 5.0 | 0.00 | 0.00 | 0.00 | 70 | 1101.7 |